SCP
0 0 0 0 0 0 0 0 0 0 0 0 0 0 0 0 0 0 0 0 0 0 0 0 0 0 0 0 0 0 0 0 0 0 0 0 0 0 0 0 0 0 0
0 0 0 0 0 0 0 0 0 0 0 0 0 0 0 0 0 0 0 0 0 0 0 0 0 0 0 0 0 0 0 0 0 0 0 0 0 0 0 0 0 0 0
0 0 0 0 0 0 0 0 0 0 0 0 0 0 0 0 0 0 0 0 0 0 0 0 0 0 0 0 0 0 0 0 0 0 0 0 0 0 0 0 0 0 0
0 0 0 0 0 0 0 0 0 0 0 0 0 0 0 0 0 0 0 0 0 0 0 0 0 0 0 0 0 0 0 0 0 0 0 0 0 0 0 0 0 0 0
0 0 0 0 0 0 0 0 0 0 0 0 0 0 0 0 0 0 0 0 0 0 0 0 0 0 0 0 0 0 0 0 0 0 0 0 0 0 0 0 0 0 0
0 0 0 0 0 0 0 0 0 0 0 0 0 0 0 0 0 0 0 0 0 0 0 0 0 0 0 0 0 0 0 0 0 0 0 0 0 0 0 0 0 1 1
0 0 0 0 0 0 0 0 0 0 0 0 0 0 0 0 0 0 0 0 0 0 0 0 0 0 0 0 0 0 0 0 0 0 0 0 0 0 0 0 0 0 1
0 0 0 0 0 0 0 0 0 0 0 0 0 0 0 0 0 0 0 0 0 0 0 0 0 0 0 0 0 0 0 0 0 0 0 0 0 0 1 1 0 0 0
0 0 0 0 0 0 0 0 0 0 0 0 0 0 0 0 0 0 0 0 0 0 0 0 0 0 0 0 0 0 0 0 0 0 0 0 0 1 1 1 1 1 0
0 0 0 0 0 0 0 0 0 0 0 0 0 0 0 0 0 0 0 0 0 0 0 0 0 0 0 0 0 0 0 0 0 0 0 1 1 1 1 1 1 1 1
0 0 0 0 0 0 0 0 0 0 0 0 0 0 0 0 0 0 0 0 0 0 0 0 0 0 0 0 0 0 0 0 0 0 0 0 1 1 1 1 1 1 1
0 0 0 0 0 0 0 0 0 0 0 0 0 0 0 0 0 0 0 0 0 0 0 0 0 0 0 0 0 0 0 0 0 0 0 0 0 0 1 1 1 1 1
0 0 0 0 0 0 0 0 0 0 0 0 0 0 0 0 0 0 0 0 0 0 0 0 0 0 0 0 0 0 0 0 0 0 0 0 0 0 0 1 1 1 1
0 0 0 0 0 0 0 0 0 0 0 0 0 0 0 0 0 0 0 0 0 0 0 0 0 0 0 0 0 0 0 0 0 0 0 0 0 0 0 0 1 1 1
0 0 0 0 0 0 0 0 0 0 0 0 0 0 0 0 0 0 0 0 0 0 0 0 0 0 0 0 0 0 0 0 0 0 0 0 0 0 0 0 0 1 1
1 1 1 1 0 0 0 0 0 0 0 0 0 0 0 0 0 0 0 0 0 0 0 0 0 0 0 0 0 0 0 0 0 0 0 0 0 0 0 0 0 0 0
1 1 1 1 1 1 1 0 0 0 0 0 0 0 0 0 0 0 0 0 0 0 0 0 0 0 0 0 0 0 0 0 0 0 0 0 0 0 0 0 0 0 0
1 1 1 1 1 1 1 1 1 1 0 0 0 0 0 0 0 0 0 0 0 0 0 0 0 0 0 0 0 0 0 0 0 0 0 0 0 0 0 0 0 0 0
1 1 1 1 1 1 1 1 1 1 1 0 0 0 0 0 0 0 0 0 0 0 0 0 0 0 0 0 0 0 0 0 0 0 0 0 0 0 0 0 0 0 0
0 1 1 1 1 1 1 1 1 1 1 1 0 0 0 0 0 0 0 0 0 0 0 0 0 0 0 0 0 0 0 0 0 0 0 0 0 0 0 0 0 0 0
0 0 0 1 1 1 0 1 1 1 1 1 1 0 0 0 0 0 0 0 0 0 0 0 0 0 0 0 0 0 0 0 0 0 0 0 0 0 0 0 0 0 0
0 0 0 0 0 0 0 0 0 0 1 1 1 0 0 0 0 0 0 0 0 0 0 0 0 0 0 0 0 0 0 0 0 0 0 0 0 0 0 0 0 0 0
0 0 0 0 0 0 0 0 0 0 1 1 1 0 0 0 0 0 0 0 0 0 0 0 0 0 0 0 0 0 0 0 0 0 0 0 0 0 0 0 0 0 0
0 0 0 0 0 0 0 0 0 0 0 1 1 1 0 0 0 0 0 0 0 0 0 0 0 0 0 0 0 0 0 0 0 0 0 0 0 0 0 0 0 0 0
0 0 0 0 0 0 0 0 0 0 0 0 0 0 0 0 0 0 0 0 0 0 0 0 0 0 0 0 0 0 0 0 0 0 0 0 0 0 0 0 0 0 0
0 0 0 0 0 0 0 0 0 0 0 0 0 0 0 0 0 0 0 0 0 0 0 0 0 0 0 0 0 0 0 0 0 0 0 0 0 0 0 0 0 0 0
Wind_Speed
5 4 4 4 4 4 4 4 4 5 5 5 5 6 6 6 5 5 4 9 11 13 15 15 15 16 16 16 16 16 16 16 16 16 16 16 16 17 17 17 16 16 16
6 5 5 5 5 5 5 5 6 5 5 4 6 6 6 6 6 6 5 7 11 13 16 17 17 17 17 17 17 17 17 17 17 17 17 17 17 17 18 18 18 18 18
7 6 5 5 5 5 5 5 5 4 4 5 6 6 5 6 6 7 6 5 6 11 15 18 18 19 19 18 18 18 18 18 18 17 17 17 18 18 18 19 19 19 19
7 6 5 5 5 4 4 4 4 4 4 4 4 5 5 5 7 8 7 7 6 6 9 15 18 19 19 19 19 18 18 18 17 17 16 16 17 17 17 18 19 19 20
8 7 6 5 5 5 5 5 4 4 4 5 5 5 5 6 7 7 8 8 8 7 7 10 14 15 17 18 18 18 18 17 17 16 16 16 16 17 17 17 18 19 19
9 8 6 6 6 5 5 4 5 5 4 4 4 6 6 7 6 7 9 8 7 8 7 7 7 8 13 16 17 17 17 17 17 16 15 15 16 16 17 17 18 19 19
8 8 6 6 6 6 7 7 5 6 5 3 3 4 5 7 9 8 7 6 7 7 6 6 5 5 5 11 14 16 17 17 17 16 15 15 15 16 16 17 18 18 19
8 7 8 7 7 7 7 7 6 4 4 4 3 2 4 4 4 5 5 6 6 5 5 6 6 6 5 4 6 13 16 17 17 16 16 15 16 16 17 18 18 18 19
8 8 8 7 7 7 7 8 8 8 6 5 5 4 3 4 4 3 3 4 4 4 4 4 5 6 5 5 5 8 12 14 16 16 16 16 16 17 17 18 18 19 19
7 8 8 8 7 6 7 7 7 7 7 6 5 6 5 3 3 4 3 3 3 4 4 4 4 5 5 4 5 8 10 11 13 14 15 16 16 17 17 17 18 18 19
6 7 8 8 8 7 7 7 7 7 7 7 5 4 5 5 6 5 6 4 3 3 4 4 4 4 4 4 4 7 10 10 11 12 13 14 16 17 17 18 18 19 19
5 7 7 8 8 7 8 8 7 8 7 7 6 5 4 4 5 6 8 6 5 4 4 4 4 4 4 4 5 8 10 10 11 11 12 12 13 15 16 17 18 18 19
5 7 7 8 7 8 7 7 7 7 8 8 8 7 6 6 4 4 6 6 5 4 3 3 4 4 3 3 4 8 9 10 11 11 11 11 12 13 14 16 17 18 18
5 5 6 7 7 6 6 6 6 7 6 7 8 8 6 6 5 5 5 5 6 5 4 5 2 2 2 3 5 7 5 8 9 10 11 11 12 13 14 15 17 17 17
3 3 4 5 5 6 6 6 6 6 6 7 7 7 7 5 5 5 5 5 6 7 6 3 2 2 2 2 4 4 4 7 9 10 10 11 12 13 14 15 16 17 17
3 3 3 4 5 5 5 5 5 5 6 6 5 6 6 5 4 4 4 4 5 7 7 3 3 2 2 2 4 4 4 8 9 9 10 11 12 13 13 14 15 16 17
3 4 4 4 4 4 4 4 4 3 4 4 4 4 5 4 4 4 4 4 4 5 8 5 2 2 2 3 4 3 4 4 5 8 10 11 12 12 13 13 14 14 15
3 3 3 4 4 4 4 4 4 4 4 4 4 4 4 3 4 3 3 4 4 5 6 8 4 2 3 3 4 4 4 4 4 8 10 12 12 12 12 12 13 13 14
2 2 3 3 3 3 3 4 4 4 4 4 4 4 4 3 3 3 3 3 3 3 4 6 6 3 3 2 3 4 4 4 5 6 9 10 11 12 12 13 13 13 14
1 2 2 2 3 2 2 3 3 3 3 3 3 3 3 3 3 3 3 3 3 3 3 4 5 3 3 2 2 3 5 4 5 5 6 7 9 11 11 13 14 14 14
0 0 0 0 1 1 1 2 2 3 3 2 1 1 1 0 1 1 1 2 3 3 3 3 4 3 3 3 3 3 5 6 5 3 5 5 5 6 7 9 11 13 14
1 2 1 1 1 1 0 1 2 2 2 2 1 0 0 0 1 2 2 2 2 3 3 3 3 4 5 4 3 4 4 5 5 2 4 7 4 6 6 5 10 13 14
1 1 1 1 1 1 1 2 1 1 1 1 1 0 1 1 1 1 2 2 2 3 3 3 4 4 4 4 5 5 5 6 7 5 5 8 4 6 6 6 12 13 14
1 1 1 1 1 1 2 2 2 1 0 0 1 1 0 1 1 2 2 2 2 2 3 2 3 4 4 3 4 5 6 7 6 4 2 6 5 6 7 6 10 12 13
1 1 1 1 1 1 2 2 2 1 1 1 1 0 0 0 2 3 1 2 2 2 4 4 5 6 7 6 5 3 3 4 6 4 1 4 5 7 7 6 6 11 12
2 2 1 1 1 0 1 2 2 1 1 0 0 0 0 1 1 2 0 1 2 3 3 4 4 5 5 4 4 3 3 4 5 5 2 3 3 5 7 5 4 5 7
Wind_Direction
196 197 199 198 200 197 199 206 216 225 232 237 237 235 240 240 240 238 244 245 246 251 259 264 266 265 262 260 260 259 259 258 257 254 252 252 252 251 250 250 249 248 248
198 197 200 203 206 205 204 207 213 221 229 231 238 237 238 241 244 243 242 246 246 249 256 263 267 268 267 266 264 262 261 260 258 255 253 253 253 253 253 252 251 250 249
198 198 200 205 209 206 206 210 219 222 229 232 240 243 243 245 248 248 246 244 247 248 250 258 264 267 269 270 269 268 266 265 262 259 257 255 255 254 254 254 252 252 251
200 200 204 209 204 200 201 206 213 221 232 235 242 247 247 249 250 250 249 247 244 248 249 252 257 261 266 269 270 271 270 270 268 266 263 260 258 258 257 256 256 254 253
203 204 210 210 199 202 205 208 212 212 228 238 245 251 250 250 252 253 253 251 247 246 246 252 251 255 261 266 271 272 273 273 272 271 268 265 263 263 261 260 260 259 258
206 206 211 209 201 206 212 210 216 217 222 230 248 257 254 253 252 251 253 254 251 248 246 249 252 254 255 262 268 271 274 276 276 275 273 271 269 267 266 264 263 263 263
206 207 212 209 206 213 216 213 214 221 227 211 240 273 269 255 252 251 249 251 253 251 248 247 246 247 256 258 264 268 273 276 278 278 278 277 276 275 273 270 268 267 266
208 208 211 213 211 215 218 216 212 217 220 193 199 243 291 301 274 253 247 246 251 253 252 251 247 245 246 250 260 264 270 275 279 281 281 281 280 280 279 277 274 272 270
210 212 214 214 214 215 222 221 215 217 226 215 203 201 228 254 299 289 258 248 245 245 253 257 253 251 248 248 256 264 265 269 275 279 281 283 283 284 282 281 280 278 276
213 215 217 216 217 219 223 224 220 220 220 228 220 219 225 211 247 293 293 273 255 249 251 256 257 256 255 254 258 262 264 264 268 273 278 281 283 284 285 284 284 284 282
216 218 218 219 220 222 225 225 222 220 221 227 223 217 228 235 233 251 275 285 285 259 253 251 251 255 255 254 260 267 267 267 267 269 272 276 279 282 284 285 286 285 284
218 221 220 220 221 223 225 227 226 221 223 225 226 220 214 224 229 234 253 265 271 268 257 247 246 250 253 255 262 270 272 273 274 274 274 275 278 280 283 285 286 286 285
219 221 219 223 224 225 224 223 224 227 225 225 227 229 227 232 230 230 247 263 267 269 260 254 242 244 255 259 268 273 274 276 279 281 282 282 282 282 283 284 285 286 286
224 221 217 219 221 223 224 223 224 228 229 229 232 232 234 236 233 231 237 251 269 268 252 253 258 241 263 271 281 282 287 286 287 288 289 289 288 286 285 284 285 286 286
226 217 211 212 217 219 221 221 225 228 227 231 234 234 237 240 237 239 238 235 248 268 270 250 250 264 275 276 297 296 292 296 291 292 293 294 293 292 290 288 288 288 288
214 209 214 213 213 216 218 219 225 228 227 232 233 234 237 241 241 240 239 241 240 252 265 257 245 265 277 297 302 294 292 298 291 295 297 298 298 298 298 296 294 293 291
212 210 211 214 212 213 213 215 221 219 223 232 236 237 244 243 243 242 240 242 245 247 262 272 255 267 271 288 300 296 294 295 300 302 304 305 305 305 304 303 302 300 297
213 212 207 208 213 210 209 212 217 215 218 227 236 238 245 250 252 251 246 247 248 247 255 270 278 272 265 280 296 302 307 304 296 307 310 309 307 308 307 309 309 304 301
215 210 205 207 211 210 208 214 215 214 218 225 229 232 240 237 250 259 260 260 261 263 257 265 274 273 268 289 304 306 303 298 303 306 308 308 308 308 309 313 313 310 304
214 217 216 206 208 204 202 205 207 209 215 221 225 229 232 226 241 256 259 267 273 271 270 272 276 282 285 306 317 310 312 311 306 307 310 313 312 310 311 315 312 311 309
22 5 153 171 206 204 210 197 200 200 203 210 211 230 259 290 292 275 279 283 279 272 275 275 279 289 294 315 315 313 306 311 301 300 315 310 309 306 307 309 307 306 307
63 66 65 69 45 357 71 142 174 190 190 192 196 230 331 347 340 337 324 307 281 271 276 276 280 284 291 299 307 306 308 316 305 319 317 301 298 294 296 297 304 308 308
98 94 85 97 74 26 65 91 123 178 180 197 200 203 354 7 338 314 316 314 307 302 282 267 271 278 290 302 309 304 296 290 285 299 309 292 294 291 294 298 306 307 309
145 132 101 92 75 37 54 59 76 129 159 120 113 135 188 337 356 343 322 313 309 323 318 296 280 287 297 304 292 289 292 294 285 275 283 283 295 294 300 297 302 305 310
142 124 109 100 101 53 64 69 79 99 103 86 66 66 141 121 7 11 348 311 313 326 348 338 320 316 321 322 322 314 307 303 295 290 287 279 296 307 301 294 303 309 311
148 127 100 95 98 45 65 78 91 135 144 126 50 28 18 27 9 17 325 296 302 316 337 335 332 330 325 320 323 300 288 289 293 292 310 308 301 322 307 295 306 313 311